Regional Weather Roundup
Issued by NWS Charleston, SC

Current Version | Previous Version | Text Only | Print | Product List | Glossary Off
Versions: 1 2 3 4 5 6 7 8 9 10 11 12 13 14 15 16 17 18 19 20 21 22 23 24 25 26 27 28 29 30 31 32 33 34 35 36 37 38 39 40 41 42 43 44 45 46 47 48 49 50

000
ASUS42 KCHS 260412
RWRCHS

REGIONAL WEATHER ROUNDUP
NATIONAL WEATHER SERVICE CHARLESTON SC
1200 AM EDT SUN MAR 26 2017

NOTE: "FAIR" INDICATES FEW OR NO CLOUDS BELOW 12,000 FEET WITH NO
SIGNIFICANT WEATHER AND/OR OBSTRUCTIONS TO VISIBILITY.

NOT ALL STATIONS ARE QUALITY CONTROLLED. USE DATA WITH CAUTION...
ESPECIALLY DEWPOINT OBSERVATIONS.

SCZ027-030-031-034>040-042>050-260500-
...SOUTHEAST SOUTH CAROLINA...

CITY           SKY/WX    TMP DP  RH WIND       PRES   REMARKS
N CHARLESTON   PTCLDY    58  55  90 CALM      30.23S
WATERFRONT PRK   N/A     62  60  93 CALM      30.23S
JOHNS ISLAND   FAIR      59  57  94 CALM      30.23F
PINOPOLIS        N/A     61  57  88 CALM      30.15S
MONCKS CORNER  FAIR      54  52  94 CALM      30.24S
SUMMERVILLE    FAIR      55  54  94 CALM      30.24S
BEAUFORT MCAS  CLEAR     61  60  97 CALM      30.21F
BEAUFORT ARPT  FAIR      59  57  94 E5        30.21F
HILTON HEAD IS CLEAR     61  59  94 VRB3      30.22F
WALTERBORO     CLEAR     55  54  94 E6        30.23F
ALLENDALE      FAIR      61  55  82 SE3       30.20F

...SOUTHERN MIDLANDS AND PEE DEE...

CITY           SKY/WX    TMP DP  RH WIND       PRES   REMARKS
GEORGETOWN     FAIR      55  54  94 CALM      30.25F
KINGSTREE      MOCLDY    54  50  87 CALM      30.24S
ORANGEBURG     PTCLDY    60  53  77 E6        30.22F
BARNWELL       FAIR      61  55  82 CALM      30.21F
AIKEN          FAIR      59  52  77 SE7       30.23F
MANNING        FAIR      54  52  94 CALM      30.24S
COLUMBIA       PTCLDY    63  52  67 E3        30.21S
SUMTER         PTCLDY    60  54  79 SE3       30.21S
FLORENCE       MOCLDY    60  55  83 S6        30.24S
MYRTLE BEACH   MOCLDY    59  55  87 CALM      30.26F
N MYRTLE BEACH MOCLDY    64  57  78 SE3       30.25S

$$

GAZ063-065-086>088-099>101-113>116-118-119-134>141-150-260500-
...SOUTHEAST GEORGIA...

CITY           SKY/WX    TMP DP  RH WIND       PRES   REMARKS
SAVANNAH ARPT  CLEAR     62  55  77 E6        30.21S
HUNTER AAF     CLEAR     60  58  91 SE6       30.18F
FORT STEWART   PTCLDY    61  56  85 SE3       30.18S
STATESBORO     CLOUDY    62  57  82 CALM      30.20F
SYLVANIA       CLOUDY   N/A N/A N/A SE3       30.21F
CLAXTON        FAIR     N/A N/A N/A CALM      30.19F

...CSRA...CENTRAL AND FAR SOUTHEAST GEORGIA...

CITY           SKY/WX    TMP DP  RH WIND       PRES   REMARKS
THOMSON        CLEAR     64  53  67 SW8       30.22S
AUGUSTA-BUSH   PTCLDY    64  54  69 SE8       30.18F
AUGUSTA-DANIEL CLEAR     65  52  62 SE6       30.18F
SWAINSBORO     FAIR      64  55  72 SE12      30.18F
VIDALIA        PTCLDY    64  57  77 SE7       30.17F
EASTMAN        FAIR      67  48  50 SE6       30.19R
HAZLEHURST     FAIR      66  60  79 SE8       30.15S
ALMA           PTCLDY    64  58  80 E6        30.16F
WAYCROSS       CLOUDY    67  64  90 SE6       30.17S
JESUP          FAIR      61  55  82 E3        30.19S
BAXLEY         FAIR      64  63  94 SE5       30.17S
BRUNSWICK      CLEAR     66  63  88 SE6       30.20S
SAINT SIMONS   CLEAR     65  60  84 E7        30.18F

$$

SCZ027-028-034-036>038-045-046-048>050-GAZ119-141-260500-
...LAKE AND SUPPLEMENTAL COASTAL OBSERVATIONS...

STATION/POSITION TIME  TEMP    WIND        PRES    WAVE   SWELL
                       AIR SEA DIR/SP/G            HT/PER HT/PER/DIR
                 (UTC) (F)     (DEG/KT/KT) (MB)    (FT/S) (FT/S/D)
WINYAH BAY       0245   62      70/  1     1024.0
LAKE MURRAY      0320   65     110/  3/  6 1022.4
ACE BASIN NERRS  0245   60     100/  1     1023.0
FORT PULASKI     0348   65 62  130/  5/  7 1023.1F
SAPELO ISLAND    0300   64     110/  4     1023.0

$$

ANZ835-935-AMZ111-154-330-350-352-354-370-450-454-472-260500-
...C-MAN AND BUOY OBSERVATIONS...

STATION/POSITION TIME  TEMP    WIND        PRES    WAVE   SWELL
                       AIR SEA DIR/SP/G            HT/PER HT/PER/DIR
                 (UTC) (F)     (DEG/KT/KT) (MB)    (FT/S) (FT/S/D)
BUOY 41004       0250   71 70  130/ 14/ 17 1023.7    4/ 8   2/110/ 8
BUOY 41008       0250   65 62  110/  8/ 10 1022.4    3/10   3/110/10
FOLLY BEACH CMAN 0300   63     120/  6/  6 1024.3S
CAPERS NEARSHORE 0308   64     160/  6/  8 1023.9S
FRIPP NEARSHORE  0308   63 61  110/  6/  8 1023.2R


STATION/POSITION TIME  TEMP    WIND        PRES    WAVE   SWELL
                       AIR SEA DIR/SP/G            HT/PER HT/PER/DIR
                 (UTC) (F)     (DEG/KT/KT) (MB)    (FT/S) (FT/S/D)
5E ST. MARYS GA  0330      65                N/A     3/ 9
FRYING PAN BUOY  0350   70 73  140/ 16/ 19 1024.7F   4/ 8   2/150/ 8
BUOY 41025       0350   69 76  180/ 16/ 19 1025.2F   3/ 5   2/140/ 8
CAPE LOOKOUT NC  0300   67     190/ 10/ 10 1025.0S
BUOY 41002       0350   67 73   90/ 12/ 16 1026.5F   4/ 8   3/100/ 8
BUOY 41010       NOT AVBL
ST AUGUSTINE FL  0400   68 68  130/ 13/ 14 1022.5F


$$




USA.gov is the U.S. government's official web portal to all federal, state and local government web resources and services.